DW2258 Weather Reports


time (UTC)temp
F
wind
direction
speed
knots
gust
knots
rain 1hr
in
rain 24hr
in
rain mn
in
humidity
%
barometer
mb
20260504231649 45 211 5.2 10.4 0.00 0.01 0.00 86 1006.5
20260504230149 46 235 5.2 10.4 0.00 0.01 0.00 84 1006.2
20260504224628 47 229 5.2 8.7 0.00 0.01 0.00 83 1006.2
20260504223130 47 227 7.0 13.9 0.00 0.01 0.00 82 1006.2
20260504221633 48 171 4.3 13.9 0.00 0.01 0.00 81 1006.0
20260504220133 48 218 6.1 12.2 0.00 0.01 0.00 81 1005.8
20260504214654 49 206 7.0 15.6 0.00 0.01 0.00 80 1005.7
20260504213134 49 195 7.0 16.5 0.00 0.01 0.00 79 1005.8
20260504211635 49 242 7.8 13.9 0.00 0.01 0.00 79 1005.6
20260504210138 49 210 7.0 13.0 0.00 0.01 0.00 80 1005.6
20260504204700 49 233 7.0 10.4 0.00 0.03 0.00 79 1005.6
20260504203159 49 214 5.2 9.6 0.00 0.03 0.00 80 1005.4
20260504201638 49 250 7.0 10.4 0.00 0.03 0.00 78 1005.6
20260504200140 51 220 5.2 12.2 0.00 0.03 0.00 76 1005.5
20260504194643 51 213 7.8 13.0 0.00 0.04 0.00 77 1005.4
20260504193142 49 219 7.8 12.2 0.00 0.04 0.00 79 1005.7
20260504191642 48 239 7.0 13.0 0.00 0.04 0.00 80 1005.9
20260504190204 48 234 9.6 13.0 0.00 0.04 0.00 79 1006.2
20260504184627 48 247 9.6 13.9 0.00 0.07 0.00 81 1006.3
20260504183206 46 233 8.7 13.9 0.00 0.07 0.00 84 1006.3
20260504181626 46 245 12.2 20.0 0.00 0.07 0.00 84 1006.0
20260504180206 45 230 9.6 14.8 0.00 0.07 0.00 85 1005.8
20260504174645 45 228 9.6 16.5 0.00 0.12 0.00 84 1005.9
20260504173128 46 226 9.6 16.5 0.00 0.12 0.00 83 1005.8
20260504171627 47 241 7.8 13.9 0.00 0.12 0.00 82 1005.6
20260504170127 46 218 9.6 19.1 0.00 0.12 0.00 83 1005.6
20260504160130 47 207 6.1 9.6 0.00 0.17 0.00 81 1006.0
20260504150152 46 246 7.8 15.6 0.00 0.20 0.00 82 1007.0
20260504140135 46 229 8.7 15.6 0.00 0.26 0.00 79 1007.3
20260504130138 46 237 8.7 15.6 0.00 0.32 0.00 77 1007.5
20260504120202 44 268 11.3 16.5 0.00 0.37 0.00 79 1007.8
20260504110147 42 253 12.2 18.2 0.00 0.43 0.00 81 1007.6
20260504100151 42 253 11.3 15.6 0.00 0.48 0.00 81 1007.1
20260504090133 42 250 11.3 15.6 0.00 0.52 0.00 77 1006.7
20260504081657 45 311 13.9 22.6 0.00 0.57 0.00 67 1006.2
20260504080139 44 264 14.8 22.6 0.00 0.57 0.00 69 1006.1
20260504070143 42 266 13.0 19.1 0.00 0.60 0.00 73 1006.0
20260504060143 42 298 12.2 20.9 0.00 0.62 0.00 75 1005.2
20260504050127 42 291 10.4 16.5 0.00 0.63 0.00 77 1004.9
20260504044646 42 320 11.3 17.4 0.00 0.63 0.63 76 1004.9
20260504043145 42 302 8.7 17.4 0.00 0.63 0.63 77 1004.7
20260504041627 42 323 12.2 18.2 0.00 0.63 0.63 75 1004.6
20260504040127 42 329 12.2 18.2 0.00 0.63 0.63 76 1004.4
20260504034633 42 304 10.4 20.9 0.00 0.63 0.63 77 1004.3
20260504033132 42 293 11.3 17.4 0.00 0.63 0.63 78 1004.3
20260504031632 43 288 12.2 19.1 0.00 0.63 0.63 78 1004.0
20260504030131 43 310 10.4 19.1 0.01 0.63 0.63 79 1003.9
20260504024636 43 307 10.4 17.4 0.01 0.63 0.63 79 1003.7
20260504023136 43 316 9.6 16.5 0.01 0.63 0.63 80 1003.7
20260504021635 44 258 9.6 20.9 0.01 0.63 0.63 80 1003.6
20260504020137 44 294 9.6 15.6 0.00 0.62 0.62 87 1003.5
20260504014640 43 280 7.8 14.8 0.00 0.62 0.62 91 1003.4
20260504013140 43 290 7.0 11.3 0.00 0.62 0.62 91 1003.3
20260504011638 44 287 7.8 12.2 0.00 0.62 0.62 91 1003.2
20260504010139 44 283 7.8 14.8 0.00 0.62 0.62 91 1003.0
20260504004640 43 297 8.7 13.9 0.00 0.62 0.62 91 1002.6
20260504003144 43 274 8.7 14.8 0.00 0.62 0.62 91 1002.4
20260504001645 43 299 9.6 14.8 0.00 0.62 0.62 91 1002.2
20260504000206 43 315 7.8 14.8 0.00 0.62 0.62 91 1002.0
20260503234705 43 312 8.7 15.6 0.00 0.62 0.62 91 1001.7
20260503233128 43 326 7.0 17.4 0.00 0.62 0.62 91 1001.5